DW7126 Lourinha PT current weather conditions

sailwx.info

Wind from 211 at 6 knots gusting 6

Air temperature 13.3° C
Dewpoint 11.7° C

Last reported at 2017-Dec-14 00:00 UTC.
Time now 2017-Dec-14 00:45 UTC

Location: N 39°14' W 009°18'.
View on Google Maps.

See reports from other nearby stations

  
Tides and Currents Weather Stations Pressure Air Temp Water Temp Dewpoint Dewpoint Depression Visibility Wind Speed Wind Dir Waves Ship Positions
date/time (UTC)wind fromknots sea level pressurealtimeterstation pressurevisibilityair tempwater tempwave heightnotes
2017-Dec-14 00:05 215 6 gusting 6 13.3
2017-Dec-14 00:00 211 6 gusting 6 13.3
2017-Dec-13 23:55 215 6 gusting 6 13.3
2017-Dec-13 23:54 221 6 gusting 6 13.3
2017-Dec-13 23:45 225 5 gusting 6 13.3
2017-Dec-13 23:39 224 3 gusting 6 12.8
2017-Dec-13 23:30 213 5 gusting 6 12.8
2017-Dec-13 23:25 216 3 gusting 6 12.8
2017-Dec-13 23:15 217 4 gusting 6 12.8
2017-Dec-13 23:10 207 4 gusting 6 12.8
2017-Dec-13 23:05 216 5 gusting 6 12.8
2017-Dec-13 22:55 222 4 gusting 6 12.8
2017-Dec-13 22:51 229 4 gusting 6 12.8
2017-Dec-13 22:45 219 5 gusting 6 12.8
2017-Dec-13 22:40 219 5 gusting 6 12.8
2017-Dec-13 22:35 201 5 gusting 6 12.8
2017-Dec-13 22:30 208 4 gusting 6 12.8
2017-Dec-13 22:25 216 4 gusting 6 12.8
2017-Dec-13 22:20 221 3 gusting 6 12.8
2017-Dec-13 22:19 219 3 gusting 6 12.2
2017-Dec-13 22:10 218 3 gusting 5 12.8
2017-Dec-13 22:05 206 2 gusting 4 12.8
2017-Dec-13 21:55 206 0 gusting 2 12.8
2017-Dec-13 21:50 196 0 gusting 3 12.8
2017-Dec-13 21:40 217 2 gusting 5 12.8
2017-Dec-13 21:35 217 2 gusting 4 12.8
2017-Dec-13 21:25 187 1 gusting 2 12.8
2017-Dec-13 21:20 219 1 gusting 2 12.8
2017-Dec-13 21:16 223 0 gusting 2 12.2
2017-Dec-13 21:15 223 1 gusting 2 12.8
2017-Dec-13 21:05 223 0 gusting 3 12.8
2017-Dec-13 21:00 247 0 gusting 3 12.8
2017-Dec-13 20:59 246 1 gusting 3 12.2
2017-Dec-13 20:55 228 1 gusting 5 12.8
2017-Dec-13 20:45 195 3 gusting 6 12.8
2017-Dec-13 20:44 209 3 gusting 6 12.8
2017-Dec-13 20:35 207 6 gusting 6 12.8
2017-Dec-13 20:30 205 5 gusting 7 12.8
2017-Dec-13 20:28 215 5 gusting 7 12.8
2017-Dec-13 20:20 223 5 gusting 7 12.8
2017-Dec-13 20:11 204 5 gusting 7 12.8
2017-Dec-13 20:05 221 5 gusting 6 12.8
2017-Dec-13 20:00 211 4 gusting 6 12.8
2017-Dec-13 19:56 227 4 gusting 6 12.2
2017-Dec-13 19:50 200 3 gusting 6 12.8
2017-Dec-13 19:45 218 2 gusting 4 12.8
2017-Dec-13 19:40 221 1 gusting 4 12.2
2017-Dec-13 19:39 223 1 gusting 4 12.2
2017-Dec-13 19:30 220 3 gusting 5 12.2
2017-Dec-13 19:25 215 3 gusting 6 12.2
2017-Dec-13 19:23 218 3 gusting 6 12.2
2017-Dec-13 19:15 211 2 gusting 4 12.2
2017-Dec-13 19:10 190 3 gusting 4 12.2
2017-Dec-13 19:00 186 2 gusting 4 12.2
2017-Dec-13 18:55 221 2 gusting 6 12.2
2017-Dec-13 18:45 207 4 gusting 6 12.2
2017-Dec-13 18:40 205 4 gusting 6 12.2
2017-Dec-13 18:30 195 6 gusting 7 12.8
2017-Dec-13 18:25 192 6 gusting 7 12.8
2017-Dec-13 18:20 176 5 gusting 7 12.2
2017-Dec-13 18:15 190 4 gusting 8 12.8
2017-Dec-13 18:05 185 6 gusting 10 12.8
2017-Dec-13 17:55 193 6 gusting 9 12.8
2017-Dec-13 17:50 194 6 gusting 12 12.8
2017-Dec-13 17:47 202 5 gusting 12 12.2
2017-Dec-13 17:40 215 6 gusting 9 12.8
2017-Dec-13 17:32 198 5 gusting 9 12.2
2017-Dec-13 17:25 192 6 gusting 9 12.8
2017-Dec-13 17:16 201 6 gusting 9 12.8
2017-Dec-13 17:10 204 6 gusting 7 12.8
2017-Dec-13 17:05 188 5 gusting 9 12.8
2017-Dec-13 17:00 222 7 gusting 10 12.8
2017-Dec-13 16:59 221 6 gusting 11 12.8
2017-Dec-13 16:55 209 6 gusting 11 12.8
2017-Dec-13 16:45 223 8 gusting 12 12.8
2017-Dec-13 16:43 198 7 gusting 12 12.8
2017-Dec-13 16:40 192 9 gusting 13 12.8
2017-Dec-13 16:35 218 10 gusting 13 12.8
2017-Dec-13 16:28 209 9 gusting 14 12.8
2017-Dec-13 16:20 215 11 gusting 14 12.8
2017-Dec-13 16:15 209 11 gusting 15 12.8
2017-Dec-13 16:05 224 10 gusting 14 12.8
2017-Dec-13 16:00 219 11 gusting 16 12.8
2017-Dec-13 15:56 219 12 gusting 17 12.8
2017-Dec-13 15:55 217 12 gusting 17 12.8
2017-Dec-13 15:45 203 12 gusting 16 12.8
2017-Dec-13 15:40 231 13 gusting 16 12.8
2017-Dec-13 15:35 201 11 gusting 15 13.3
2017-Dec-13 15:30 226 7 gusting 16 13.3
2017-Dec-13 15:25 226 11 gusting 16 13.3
2017-Dec-13 15:20 196 9 gusting 13 13.3
2017-Dec-13 15:10 225 10 gusting 13 13.3
2017-Dec-13 15:08 224 8 gusting 15 13.3
2017-Dec-13 15:00 196 11 gusting 18 13.9
2017-Dec-13 14:55 222 11 gusting 17 13.9
2017-Dec-13 14:52 223 11 gusting 17 13.3
2017-Dec-13 14:45 221 12 gusting 19 13.9
2017-Dec-13 14:40 224 13 gusting 19 13.3
2017-Dec-13 14:37 223 13 gusting 19 13.3
2017-Dec-13 14:30 230 14 gusting 19 13.3
2017-Dec-13 14:25 215 14 gusting 21 13.9
2017-Dec-13 14:20 221 12 gusting 19 13.9
2017-Dec-13 14:10 227 12 gusting 17 13.9
2017-Dec-13 14:05 257 13 gusting 15 13.9
2017-Dec-13 14:02 230 11 gusting 17 13.3
2017-Dec-13 13:55 227 12 gusting 17 13.9
2017-Dec-13 13:50 218 11 gusting 17 13.9
2017-Dec-13 13:44 240 11 gusting 17 13.3
2017-Dec-13 13:40 252 10 gusting 14 13.9
2017-Dec-13 13:30 238 9 gusting 13 13.3
2017-Dec-13 13:27 218 6 gusting 10 12.8
2017-Dec-13 13:20 210 3 gusting 6 13.3
2017-Dec-13 13:10 194 4 gusting 7 12.8
2017-Dec-13 13:09 234 5 gusting 7 12.8
2017-Dec-13 13:00 209 4 gusting 7 12.8
2017-Dec-13 12:55 213 5 gusting 6 12.8
2017-Dec-13 12:51 214 3 gusting 8 12.8
2017-Dec-13 12:45 230 6 gusting 8 12.8
2017-Dec-13 12:40 209 4 gusting 7 12.8
2017-Dec-13 12:34 194 2 gusting 6 12.8
2017-Dec-13 12:25 212 5 gusting 6 12.8
2017-Dec-13 12:20 174 4 gusting 6 12.8
2017-Dec-13 12:17 175 4 gusting 6 12.8
2017-Dec-13 12:10 178 3 gusting 6 13.3
2017-Dec-13 12:05 170 3 gusting 7 13.3
2017-Dec-13 12:00 207 6 gusting 7 12.8
2017-Dec-13 11:59 193 4 gusting 6 12.8
2017-Dec-13 11:50 202 4 gusting 7 12.8
2017-Dec-13 11:41 191 3 gusting 8 12.8
2017-Dec-13 11:35 205 5 gusting 8 13.3
2017-Dec-13 11:25 194 6 gusting 8 13.3
2017-Dec-13 11:24 177 5 gusting 8 12.8
2017-Dec-13 11:20 209 6 gusting 7 12.8
2017-Dec-13 11:10 207 5 gusting 9 12.8
2017-Dec-13 11:00 186 3 gusting 6 13.3
2017-Dec-13 10:55 216 3 gusting 8 13.3
2017-Dec-13 10:50 194 6 gusting 8 13.3
2017-Dec-13 10:49 217 5 gusting 8 12.8
2017-Dec-13 10:40 175 4 gusting 6 13.3
2017-Dec-13 10:35 196 5 gusting 6 13.3
2017-Dec-13 10:31 187 4 gusting 7 12.8
2017-Dec-13 10:30 215 4 gusting 7 12.8
2017-Dec-13 10:25 178 5 gusting 9 13.3
2017-Dec-13 10:15 225 6 gusting 8 12.8
2017-Dec-13 10:13 186 5 gusting 8 12.8
2017-Dec-13 10:05 189 5 gusting 8 12.8
2017-Dec-13 10:00 221 3 gusting 6 12.2
2017-Dec-13 09:50 223 2 gusting 4 12.2
2017-Dec-13 09:40 244 0 gusting 2 11.7
2017-Dec-13 09:39 182 11.1
2017-Dec-13 09:30 207 1 gusting 3 11.1
2017-Dec-13 09:25 084 0 gusting 3 10.6
2017-Dec-13 09:21 119 0 gusting 3 10.6
2017-Dec-13 09:15 061 0 gusting 3 10.6
2017-Dec-13 09:10 051 1 gusting 3 10.0
2017-Dec-13 09:05 040 1 gusting 3 10.0
2017-Dec-13 09:03 056 1 gusting 3 9.4
2017-Dec-13 08:55 053 1 gusting 3 10.0
2017-Dec-13 08:50 144 1 gusting 3 10.6
2017-Dec-13 08:46 187 0 gusting 4 10.6
2017-Dec-13 08:45 217 1 gusting 4 10.6
2017-Dec-13 08:40 190 2 gusting 5 10.6
2017-Dec-13 08:35 192 2 gusting 5 10.6
2017-Dec-13 08:28 192 1 gusting 6 10.0
2017-Dec-13 08:20 180 3 gusting 8 10.6
2017-Dec-13 08:15 159 1 gusting 6 10.6
2017-Dec-13 08:11 200 3 gusting 6 10.6
2017-Dec-13 08:05 169 0 gusting 3 10.0
2017-Dec-13 08:00 204 1 gusting 3 10.0
2017-Dec-13 07:53 185 1 gusting 4 9.4
2017-Dec-13 07:45 234 2 gusting 4 9.4
2017-Dec-13 07:40 200 1 gusting 3 8.9
2017-Dec-13 07:30 110 0 gusting 1 8.9
2017-Dec-13 07:25 110 0 gusting 1 8.9
2017-Dec-13 07:18 082 7.8
2017-Dec-13 07:10 074 8.3
2017-Dec-13 07:05 074 8.3
2017-Dec-13 06:55 074 8.3
2017-Dec-13 06:50 074 8.3
2017-Dec-13 06:45 074 1 gusting 2 8.3
2017-Dec-13 06:43 074 0 gusting 2 7.8
2017-Dec-13 06:35 107 8.3
2017-Dec-13 06:30 107 8.3
2017-Dec-13 06:26 107 7.8
2017-Dec-13 06:20 107 8.3
2017-Dec-13 06:15 107 7.8
2017-Dec-13 06:10 107 7.8
2017-Dec-13 06:08 107 0 gusting 1 7.2
2017-Dec-13 06:05 113 7.8
2017-Dec-13 05:55 150 7.8
2017-Dec-13 05:50 150 7.2
2017-Dec-13 05:45 150 7.2
2017-Dec-13 05:40 150 7.2
2017-Dec-13 05:35 150 7.2
2017-Dec-13 05:33 150 7.2
2017-Dec-13 05:25 150 7.2
2017-Dec-13 05:20 150 7.2
2017-Dec-13 05:15 150 7.2
2017-Dec-13 05:10 150 7.2
2017-Dec-13 05:05 150 7.2
2017-Dec-13 05:00 150 7.2
2017-Dec-13 04:57 150 6.7
2017-Dec-13 04:55 150 6.7
2017-Dec-13 04:50 150 7.2
2017-Dec-13 04:40 150 6.7
2017-Dec-13 04:30 150 6.7
2017-Dec-13 04:25 150 6.7
2017-Dec-13 04:22 150 6.1
2017-Dec-13 04:15 150 7.2
2017-Dec-13 04:10 150 7.2
2017-Dec-13 04:05 150 7.2
2017-Dec-13 03:55 150 0 gusting 1 7.2
2017-Dec-13 03:50 153 7.2
2017-Dec-13 03:47 153 6.7
2017-Dec-13 03:40 153 6.7
2017-Dec-13 03:35 153 6.7
2017-Dec-13 03:30 153 6.1
2017-Dec-13 03:29 153 6.1
2017-Dec-13 03:25 153 6.1
2017-Dec-13 03:20 153 0 gusting 1 6.1
2017-Dec-13 03:14 153 0 gusting 1 5.6
2017-Dec-13 03:10 153 0 gusting 1 5.6
2017-Dec-13 03:00 149 0 gusting 1 5.6
2017-Dec-13 02:55 149 5.6
2017-Dec-13 02:54 149 5.6
2017-Dec-13 02:45 149 5.6
2017-Dec-13 02:40 144 0 gusting 1 5.0
2017-Dec-13 02:37 042 5.0
2017-Dec-13 02:30 042 5.6
2017-Dec-13 02:25 042 1 gusting 2 5.6
2017-Dec-13 02:20 042 1 gusting 2 5.0
2017-Dec-13 02:19 042 0 gusting 2 5.0
2017-Dec-13 02:10 062 0 gusting 1 5.6
2017-Dec-13 02:05 062 0 gusting 0 5.6
2017-Dec-13 02:02 062 5.0
2017-Dec-13 01:55 062 0 gusting 1 5.6
2017-Dec-13 01:50 062 5.6
2017-Dec-13 01:45 062 0 gusting 1 5.0
2017-Dec-13 01:44 062 5.0
2017-Dec-13 01:40 062 1 gusting 1 5.0
2017-Dec-13 01:30 062 0 gusting 1 5.6
2017-Dec-13 01:27 062 5.6
2017-Dec-13 01:20 062 0 gusting 2 6.1
2017-Dec-13 01:15 062 2 gusting 2 6.1
2017-Dec-13 01:10 069 6.1
2017-Dec-13 01:09 069 6.1
2017-Dec-13 01:05 069 6.1
2017-Dec-13 00:55 069 6.1
2017-Dec-13 00:45 069 0 gusting 0 6.1
2017-Dec-13 00:40 069 0 gusting 0 6.1
2017-Dec-13 00:35 069 6.1
2017-Dec-13 00:34 069 5.6
2017-Dec-13 00:25 069 6.1
2017-Dec-13 00:20 069 6.1
2017-Dec-13 00:10 069 5.6
2017-Dec-13 00:05 069 5.6
2017-Dec-13 00:00 069 0 gusting 0 5.6
2017-Dec-12 23:55 069 5.6
2017-Dec-12 23:50 069 5.6
2017-Dec-12 23:45 069 0 gusting 1 5.6
2017-Dec-12 23:40 069 1 gusting 1 5.6
2017-Dec-12 23:39 069 0 gusting 1 5.6
2017-Dec-12 23:30 069 0 gusting 1 5.6
2017-Dec-12 23:25 069 6.1
2017-Dec-12 23:23 069 6.1
2017-Dec-12 23:15 069 0 gusting 0 6.1
2017-Dec-12 23:10 069 6.1
2017-Dec-12 23:07 069 6.1
2017-Dec-12 23:00 069 6.1
2017-Dec-12 22:55 069 1 gusting 2 6.7
2017-Dec-12 22:51 073 6.7
2017-Dec-12 22:45 073 0 gusting 1 6.7
2017-Dec-12 22:40 073 0 gusting 1 6.1
2017-Dec-12 22:36 073 0 gusting 1 6.1
2017-Dec-12 22:30 073 0 gusting 1 6.1
2017-Dec-12 22:25 073 0 gusting 0 6.1
2017-Dec-12 22:20 073 6.7
2017-Dec-12 22:10 073 6.7
2017-Dec-12 22:05 073 6.7
2017-Dec-12 22:03 073 6.7
2017-Dec-12 21:55 073 7.2
2017-Dec-12 21:47 073 6.7
2017-Dec-12 21:40 073 6.7
2017-Dec-12 21:35 073 0 gusting 0 6.7
2017-Dec-12 21:31 073 6.7
2017-Dec-12 21:25 073 0 gusting 0 6.7
2017-Dec-12 21:20 073 7.2
2017-Dec-12 21:16 073 6.7
2017-Dec-12 21:10 073 7.2
2017-Dec-12 21:05 073 7.2
2017-Dec-12 21:00 073 7.2
2017-Dec-12 20:59 073 6.7
2017-Dec-12 20:50 073 7.2
2017-Dec-12 20:45 073 7.2
2017-Dec-12 20:43 073 7.2
2017-Dec-12 20:35 073 0 gusting 2 7.8
2017-Dec-12 20:30 073 1 gusting 2 7.8
2017-Dec-12 20:28 073 0 gusting 2 7.8
2017-Dec-12 20:25 112 7.8
2017-Dec-12 20:15 112 7.8
2017-Dec-12 20:13 112 7.2
2017-Dec-12 20:05 112 1 gusting 1 7.8
2017-Dec-12 20:00 111 0 gusting 0 7.8
2017-Dec-12 19:57 111 7.8
2017-Dec-12 19:50 111 8.3
2017-Dec-12 19:45 111 0 gusting 1 8.9
2017-Dec-12 19:40 111 0 gusting 1 8.9
2017-Dec-12 19:39 111 0 gusting 1 8.3
2017-Dec-12 19:35 111 8.3
2017-Dec-12 19:25 111 8.9
2017-Dec-12 19:23 111 8.3
2017-Dec-12 19:20 111 8.9
2017-Dec-12 19:10 111 8.9
2017-Dec-12 19:08 111 0 gusting 1 8.9
2017-Dec-12 19:00 113 1 gusting 1 9.4
2017-Dec-12 18:55 116 1 gusting 1 9.4
2017-Dec-12 18:51 174 9.4
2017-Dec-12 18:45 174 0 gusting 1 10.0
2017-Dec-12 18:40 174 9.4
2017-Dec-12 18:35 174 0 gusting 1 9.4
2017-Dec-12 18:25 174 0 gusting 1 9.4
2017-Dec-12 18:20 174 8.9
2017-Dec-12 18:10 174 9.4
2017-Dec-12 18:03 174 9.4
2017-Dec-12 17:55 174 11.1
2017-Dec-12 17:50 174 11.1
2017-Dec-12 17:47 174 10.6
2017-Dec-12 17:40 174 1 gusting 2 10.6
2017-Dec-12 17:35 174 0 gusting 2 10.6
2017-Dec-12 17:25 173 1 gusting 2 10.6
2017-Dec-12 17:20 045 0 gusting 1 11.1
2017-Dec-12 17:16 045 11.7
2017-Dec-12 17:10 045 0 gusting 1 11.7
2017-Dec-12 17:05 045 0 gusting 1 11.7
2017-Dec-12 17:00 048 1 gusting 2 12.2
2017-Dec-12 16:58 047 0 gusting 2 11.7
2017-Dec-12 16:50 046 1 gusting 2 12.2
2017-Dec-12 16:42 033 0 gusting 2 12.2
2017-Dec-12 16:35 038 0 gusting 1 12.2
2017-Dec-12 16:30 038 12.2
2017-Dec-12 16:27 038 12.2
2017-Dec-12 16:20 022 2 gusting 5 12.8
2017-Dec-12 16:15 015 3 gusting 5 12.8
2017-Dec-12 16:05 350 3 gusting 7 12.8
2017-Dec-12 16:00 028 3 gusting 9 12.8
2017-Dec-12 15:55 360 5 gusting 9 12.8
2017-Dec-12 15:54 350 4 gusting 9 12.8
2017-Dec-12 15:45 026 4 gusting 8 13.3
2017-Dec-12 15:40 034 6 gusting 8 13.3
2017-Dec-12 15:38 022 5 gusting 9 13.3
2017-Dec-12 15:30 009 6 gusting 9 13.9
2017-Dec-12 15:25 322 5 gusting 9 13.9
2017-Dec-12 15:23 323 5 gusting 9 13.9
2017-Dec-12 15:15 341 5 gusting 7 13.9
2017-Dec-12 15:10 032 5 gusting 10 14.4
2017-Dec-12 15:06 025 6 gusting 10 14.4
2017-Dec-12 15:00 355 5 gusting 9 14.4
2017-Dec-12 14:50 031 7 gusting 12 13.9
2017-Dec-12 14:45 005 7 gusting 10 14.4
2017-Dec-12 14:35 029 4 gusting 9 14.4
2017-Dec-12 14:34 009 5 gusting 9 13.9
2017-Dec-12 14:25 009 6 gusting 10 14.4
2017-Dec-12 14:20 355 4 gusting 10 14.4
2017-Dec-12 14:18 355 4 gusting 10 13.9
2017-Dec-12 14:10 014 4 gusting 8 14.4
2017-Dec-12 14:05 005 6 gusting 10 14.4
2017-Dec-12 14:02 023 4 gusting 10 13.9
2017-Dec-12 13:55 350 5 gusting 9 14.4
2017-Dec-12 13:50 027 6 gusting 9 14.4
2017-Dec-12 13:40 346 5 gusting 8 14.4
2017-Dec-12 13:35 009 6 gusting 8 14.4
2017-Dec-12 13:30 013 6 gusting 8 14.4
2017-Dec-12 13:25 009 4 gusting 8 14.4
2017-Dec-12 13:20 015 5 gusting 8 14.4
2017-Dec-12 13:13 360 4 gusting 9 14.4
2017-Dec-12 13:10 012 6 gusting 12 14.4
2017-Dec-12 13:00 020 7 gusting 11 13.9
2017-Dec-12 12:58 355 4 gusting 11 13.9
2017-Dec-12 12:50 346 4 gusting 9 13.9
2017-Dec-12 12:45 340 5 gusting 9 13.9
2017-Dec-12 12:35 355 6 gusting 9 13.9
2017-Dec-12 12:30 350 3 gusting 8 13.9
2017-Dec-12 12:26 022 4 gusting 8 13.3
2017-Dec-12 12:20 016 3 gusting 9 13.9
2017-Dec-12 12:15 009 6 gusting 11 13.9
2017-Dec-12 12:09 026 6 gusting 11 13.3
2017-Dec-12 12:00 005 5 gusting 9 13.9
2017-Dec-12 11:55 013 4 gusting 7 13.3
2017-Dec-12 11:53 005 5 gusting 7 13.3
2017-Dec-12 11:45 026 4 gusting 9 13.3
2017-Dec-12 11:40 017 2 gusting 6 12.8
2017-Dec-12 11:30 066 3 gusting 4 12.8
2017-Dec-12 11:25 057 2 gusting 6 12.8
2017-Dec-12 11:15 056 4 gusting 4 12.2
2017-Dec-12 11:10 075 0 gusting 4 12.2
2017-Dec-12 11:00 073 2 gusting 3 12.2
2017-Dec-12 10:55 054 2 gusting 4 11.7
2017-Dec-12 10:50 088 2 gusting 6 11.7
2017-Dec-12 10:49 051 2 gusting 6 11.1
2017-Dec-12 10:35 069 2 gusting 4 11.1
2017-Dec-12 10:33 057 10.6
2017-Dec-12 10:25 056 1 gusting 2 10.6
2017-Dec-12 10:20 111 10.0
2017-Dec-12 10:05 217 0 gusting 1 8.3
2017-Dec-12 09:55 203 0 gusting 2 7.8
2017-Dec-12 09:50 107 2 gusting 3 7.2
2017-Dec-12 09:45 055 1 gusting 3 6.7
2017-Dec-12 09:35 239 0 gusting 1 6.7
2017-Dec-12 09:30 240 0 gusting 1 6.1
2017-Dec-12 09:29 240 6.1
2017-Dec-12 09:20 022 6.1
2017-Dec-12 09:15 051 5.6
2017-Dec-12 09:05 056 0 gusting 2 6.1
2017-Dec-12 09:00 202 1 gusting 2 5.6
2017-Dec-12 08:57 212 0 gusting 2 5.0
2017-Dec-12 08:50 217 0 gusting 1 5.0
2017-Dec-12 08:45 222 0 gusting 2 5.0
2017-Dec-12 08:41 221 5.0
2017-Dec-12 08:40 221 5.0
2017-Dec-12 08:30 054 0 gusting 3 5.0
2017-Dec-12 08:25 054 0 gusting 3 3.9
2017-Dec-12 08:20 059 0 gusting 2 5.0
2017-Dec-12 08:10 194 1 gusting 2 4.4
2017-Dec-12 08:09 194 1 gusting 2 4.4
2017-Dec-12 08:00 178 1 gusting 2 4.4
2017-Dec-12 07:55 058 0 gusting 3 5.0
2017-Dec-12 07:52 040 4.4
2017-Dec-12 07:45 074 0 gusting 1 5.0
2017-Dec-12 07:40 105 0 gusting 1 5.0
2017-Dec-12 07:37 101 0 gusting 1 5.0
2017-Dec-12 07:30 101 0 gusting 2 5.0
2017-Dec-12 07:25 101 0 gusting 2 5.0
2017-Dec-12 07:21 101 1 gusting 2 5.0
2017-Dec-12 07:20 101 1 gusting 2 5.0
2017-Dec-12 07:10 040 1 gusting 3 5.0
2017-Dec-12 07:05 104 0 gusting 2 6.7
2017-Dec-12 07:04 104 0 gusting 2 6.1
2017-Dec-12 07:00 104 0 gusting 2 6.1
2017-Dec-12 06:50 063 2 gusting 4 7.2
2017-Dec-12 06:48 063 2 gusting 3 6.7
2017-Dec-12 06:40 084 3 gusting 4 7.8
2017-Dec-12 06:35 078 1 gusting 3 7.8
2017-Dec-12 06:33 078 1 gusting 3 7.2
2017-Dec-12 06:25 046 1 gusting 2 6.7
2017-Dec-12 06:20 025 0 gusting 3 6.7
2017-Dec-12 06:17 024 0 gusting 4 6.7
2017-Dec-12 06:10 065 2 gusting 4 6.1
2017-Dec-12 06:05 079 0 gusting 2 6.1
2017-Dec-12 05:55 082 1 gusting 4 6.7
2017-Dec-12 05:50 085 2 gusting 3 6.7
2017-Dec-12 05:44 079 1 gusting 3 6.7
2017-Dec-12 05:35 197 0 gusting 2 6.1
2017-Dec-12 05:30 198 0 gusting 2 6.1
2017-Dec-12 05:29 198 0 gusting 3 5.6
2017-Dec-12 05:25 074 6.1
2017-Dec-12 05:15 084 0 gusting 4 6.1
2017-Dec-12 05:12 084 5.6
2017-Dec-12 05:05 069 2 gusting 3 6.7
2017-Dec-12 05:00 065 3 gusting 3 6.7
2017-Dec-12 04:57 065 1 gusting 3 6.1
2017-Dec-12 04:50 052 1 gusting 2 6.7
2017-Dec-12 04:45 052 1 gusting 2 6.7
2017-Dec-12 04:41 052 0 gusting 2 6.7
2017-Dec-12 04:35 052 0 gusting 2 6.7
2017-Dec-12 04:30 052 6.7
2017-Dec-12 04:25 052 0 gusting 1 7.2
2017-Dec-12 04:24 052 6.7
2017-Dec-12 04:15 052 7.2
2017-Dec-12 04:10 052 7.2
2017-Dec-12 04:08 052 6.7
2017-Dec-12 04:05 052 7.2
2017-Dec-12 03:55 052 0 gusting 3 7.2
2017-Dec-12 03:52 052 0 gusting 3 6.7
2017-Dec-12 03:50 060 1 gusting 4 7.2
2017-Dec-12 03:40 059 2 gusting 6 7.2
2017-Dec-12 03:36 054 2 gusting 5 7.2
2017-Dec-12 03:30 075 2 gusting 3 7.2
2017-Dec-12 03:25 069 1 gusting 3 7.2
2017-Dec-12 03:20 067 1 gusting 3 6.7
2017-Dec-12 03:15 081 1 gusting 2 7.2
2017-Dec-12 03:10 081 1 gusting 4 7.2
2017-Dec-12 03:05 059 1 gusting 4 7.2
2017-Dec-12 03:04 059 1 gusting 4 7.2
2017-Dec-12 02:55 072 1 gusting 5 7.8
2017-Dec-12 02:50 065 1 gusting 3 7.8
2017-Dec-12 02:48 040 0 gusting 2 7.2
2017-Dec-12 02:40 039 1 gusting 2 7.2
2017-Dec-12 02:35 039 0 gusting 1 7.8
2017-Dec-12 02:32 034 7.2
2017-Dec-12 02:25 034 7.8
2017-Dec-12 02:20 034 7.8
2017-Dec-12 02:10 031 7.8
2017-Dec-12 02:05 031 8.3
2017-Dec-12 02:01 031 7.8
2017-Dec-12 01:55 031 1 gusting 4 8.3
2017-Dec-12 01:45 078 2 gusting 4 8.3
2017-Dec-12 01:44 045 1 gusting 4 7.8
2017-Dec-12 01:35 078 1 gusting 6 8.3
2017-Dec-12 01:30 051 1 gusting 7 8.9
2017-Dec-12 01:28 059 5 gusting 13 8.3
2017-Dec-12 01:20 056 8 gusting 19 8.9
2017-Dec-12 01:15 042 8 gusting 15 8.9
2017-Dec-12 01:12 058 4 gusting 6 8.9
2017-Dec-12 01:05 046 4 gusting 6 8.9
2017-Dec-12 01:00 053 2 gusting 4 8.9
2017-Dec-12 00:56 085 8.3
2017-Dec-12 00:50 119 0 gusting 1 8.9
2017-Dec-12 00:45 032 8.9
2017-Dec-12 00:40 032 8.3
2017-Dec-12 00:35 095 0 gusting 2 8.9
2017-Dec-12 00:30 115 0 gusting 2 8.9
2017-Dec-12 00:25 051 8.9
2017-Dec-12 00:15 049 0 gusting 2 8.9
2017-Dec-12 00:10 076 8.9
2017-Dec-12 00:00 029 3 gusting 6 8.9